#timestamp,LO_Frequency,Hit,StdDev 
1606672815.1,286046998.8,N
1606672816.0,286046998.8,N
1606672835.8,286046998.8,N
1606672855.6,286046998.9,N
1606672875.5,286046999.1,N
1606672895.3,286047000.8,N
1606672915.1,286047000.5,N
1606672935.9,286047000.4,N
1606672955.7,286047000.8,N
1606672975.5,286046998.9,N
1606672995.4,286046999.5,N
1606673015.2,286046999.4,N
1606673035.0,286046999.6,N
1606673035.9,286046999.6,N
1606673055.8,286046997.2,Y
1606673075.6,286046999.5,P
1606673095.4,286046996.6,P
1606673115.3,286046999.6,N
1606673135.1,286046999.3,N
1606673136.0,286046999.3,N
1606673155.8,286046997.5,N
1606673175.7,286046998.7,N
1606673195.5,286046998.6,N
1606673215.3,286046998.2,N
1606673235.2,286046996.6,Y
1606673255.9,286047000.6,P
1606673275.7,286046998.6,N
1606673295.6,286047000.6,N
1606673315.4,286047001.1,N
1606673335.2,286047000.7,N
1606673355.1,286046996.7,Y
1606673356.0,286046996.7,P
1606673375.8,286046997.3,N
1606673395.6,286046997.6,N
1606673415.5,286046997.2,N
1606673435.3,286046997.3,N
1606673455.1,286046999.4,N
1606673475.9,286046997.0,N
1606673495.7,286046996.9,N
1606673515.5,286046999.1,N
1606673535.3,286046997.7,N
1606673555.2,286046996.9,N
1606673575.0,286046997.3,N
1606673575.9,286046997.3,N
1606673595.8,286046996.7,Y
1606673615.6,286047001.1,P
1606673635.4,286046998.1,N
1606673655.2,286047000.7,N
1606673675.1,286047000.8,N
1606673676.0,286047000.8,N
1606673695.8,286046998.3,N
1606673715.6,286046999.1,N
1606673735.5,286047001.2,N
1606673755.3,286046999.8,N
1606673775.1,286046999.9,N
1606673795.9,286047000.5,N
1606673815.7,286046999.7,N
1606673835.5,286047000.3,N
1606673855.4,286047001.2,N
1606673875.2,286047000.9,N
1606673895.0,286047000.3,N
1606673895.9,286047000.3,N
1606673915.8,286046998.6,N
1606673935.6,286046998.6,N
1606673955.4,286047000.7,N
1606673975.3,286046998.8,N
1606673995.1,286046998.9,N
1606674015.8,286046999.0,N
1606674035.7,286046999.4,N
1606674055.5,286046997.2,N
1606674075.3,286046997.5,N
1606674095.2,286046998.0,N
1606674115.9,286046996.6,N
1606674135.7,286046999.6,N
1606674155.6,286046997.7,N
1606674175.4,286046998.0,N
1606674195.2,286046996.8,N
1606674215.1,286046997.5,N
1606674216.0,286046997.5,N
1606674235.8,286046996.5,N
1606674255.6,286046998.9,N
1606674275.5,286046998.7,N
1606674295.3,286046998.1,N
1606674315.1,286046998.3,N
1606674335.9,286046998.8,N
1606674355.7,286046998.1,N
1606674375.5,286047001.2,N
1606674395.3,286046998.5,N
1606674415.2,286047000.5,N
1606674435.0,286047000.8,N
1606674435.9,286047000.8,N
1606674455.7,286046998.3,N
1606674475.6,286047000.5,N
1606674495.4,286047000.8,N
1606674515.2,286047000.9,N
1606674535.1,286047001.1,N
1606674536.0,286047001.1,N
1606674555.8,286047000.9,N
1606674575.6,286046999.8,N
1606674595.5,286047002.0,N
1606674615.3,286047002.5,N
1606674635.1,286047002.7,N
1606674655.9,286047000.2,N
1606674675.7,286047002.4,N
1606674695.5,286047002.4,N
1606674715.4,286047000.1,N
1606674735.2,286047002.2,N
1606674755.0,286047003.3,N
1606674755.9,286047003.3,N
1606674775.8,286047003.7,N
1606674795.6,286047005.9,Y
1606674815.4,286047004.3,P
1606674835.3,286047003.6,N
1606674855.1,286047003.4,N
1606674875.8,286047003.7,N
1606674895.7,286047005.9,Y
1606674915.5,286047002.5,P
1606674935.3,286047001.5,P
1606674955.2,286047002.0,N
1606674975.9,286047001.5,N
1606674995.7,286047002.1,Y
1606675015.6,286047000.2,P
1606675035.4,286047002.5,N
1606675055.2,286047001.6,N
1606675075.1,286047001.9,N
1606675076.0,286047001.9,N
1606675095.8,286047002.1,N
1606675115.6,286047002.1,Y
1606675135.5,286046999.8,P
1606675155.3,286047001.6,N
1606675175.1,286047004.3,P
1606675195.9,286047003.9,N
1606675215.7,286047004.4,N
1606675235.5,286047003.8,N
1606675255.4,286047003.3,N
1606675275.2,286047007.6,Y
1606675295.0,286047003.4,P
1606675295.9,286047003.4,P
1606675315.8,286047003.5,P
1606675335.6,286047005.7,Y
1606675355.4,286047002.4,P
1606675375.3,286046999.9,N
1606675395.1,286047002.7,N
1606675396.0,286047002.7,N
1606675415.8,286047002.8,N
1606675435.7,286047004.3,Y
1606675455.5,286047001.7,P
1606675475.3,286047005.3,P
1606675495.2,286047005.2,P
1606675515.9,286047005.0,Y
1606675535.7,286047001.7,P
1606675555.6,286047004.1,P
1606675575.4,286047001.7,N
1606675595.2,286047003.9,Y
1606675615.1,286047000.9,P
1606675616.0,286047000.9,N
1606675635.8,286046999.7,N
1606675655.6,286047000.0,N
1606675675.5,286047004.3,Y
1606675695.3,286047003.6,P
1606675715.1,286047002.0,N
1606675735.9,286047001.5,N
1606675755.7,286047002.9,N
1606675775.5,286047005.2,Y
1606675795.4,286047005.8,P
1606675815.2,286047006.0,P
1606675835.0,286047005.4,P
1606675835.9,286047005.4,Y
1606675855.8,286046998.2,P
1606675875.6,286047001.0,N
1606675895.4,286047002.4,N
1606675915.3,286047001.9,N
1606675935.1,286046999.7,N
1606675936.0,286046999.7,N
1606675955.8,286047002.6,N
1606675975.7,286046999.9,N
1606675995.5,286047002.0,N
1606676015.3,286047003.2,N
1606676035.2,286047003.3,N
1606676055.9,286047003.5,N
1606676075.7,286047004.7,N
1606676095.6,286047006.3,Y
1606676115.4,286047004.5,P
1606676135.2,286047007.4,P
1606676155.1,286047007.3,P
1606676156.0,286047007.3,Y
1606676175.8,286047000.2,P
1606676195.6,286047002.6,N
1606676215.5,286047004.0,N
1606676235.3,286047003.1,N
1606676255.1,286047002.9,N
1606676275.9,286047007.2,Y
1606676295.7,286047004.4,P
1606676315.5,286046999.7,N
1606676335.4,286046999.8,N
1606676385.2,286047004.2,E
1606676395.1,286047001.9,N
